Regional Weather Roundup
Issued by NWS Kansas City/Pleasant Hill, MO

Home | Current Version | Previous Version | Text Only | Print | Product List | Glossary On
Versions: 1 2 3 4 5 6 7 8 9 10 11 12 13 14 15 16 17 18 19 20 21 22 23 24 25 26
000
ASUS43 KEAX 171710
RWREAX

WEATHER ROUNDUP FOR EASTERN KANSAS AND NORTHWEST MISSOURI
NATIONAL WEATHER SERVICE KANSAS CITY/PLEASANT HILL MO
1100 AM CST SAT FEB 17 2018

KSZ040-057-103>105-MOZ028-029-037-043-171800-
...KANSAS CITY METROPOLITAN AREA...

CITY           SKY/WX    TMP DP  RH WIND       PRES   REMARKS
K.C. INTL      MOSUNNY   43  33  68 W14       30.00R
K.C. DOWNTOWN  MOSUNNY   43  34  70 W13       30.01S
LEES SUMMIT    PTSUNNY   41  37  86 W14       30.01S WCI  33
OLATHE - IXD   MOSUNNY   42  35  76 W15G24    30.02R WCI  34
OLATHE - OJC   MOSUNNY   42  34  73 W12       30.02R
LAWRENCE       SUNNY     45  33  63 W15       30.02R

$$

MOZ001>008-011>017-020>025-030>033-038>040-044>046-053-054-171800-
...NORTHERN AND CENTRAL MISSOURI...

CITY           SKY/WX    TMP DP  RH WIND       PRES   REMARKS
ST. JOSEPH     SUNNY     45  24  43 NW20G26   30.00R
MOSBY          PTSUNNY   41  32  70 W10       30.01F WCI  35
WARRENSBURG    CLOUDY    37  36  93 SW14G21   30.04R WCI  29
WHITEMAN AFB   CLOUDY    37  36  93 SW14      29.99R WCI  29
CLINTON        CLOUDY    39  39 100 SW10      30.05S FOG     WCI  32
SEDALIA        CLOUDY    38  38 100 SW15      30.04R FOG     WCI  29
WARSAW         NOT AVBL
CHILLICOTHE      N/A     37  34  89 SW9       30.01R WCI  30
KIRKSVILLE     LGT SNOW  33  33 100 SW10      29.98R VSB 1   WCI  25

$$

MOZ041-047>049-056>058-063>065-088>090-097-171800-
...EASTERN AND SOUTHERN MISSOURI...

CITY           SKY/WX    TMP DP  RH WIND       PRES   REMARKS
ST. LOUIS INTL LGT SNOW  34  33  96 S9        30.06F FOG     WCI  27
SPIRIT OF STL  LGT SNOW  35  34  96 SE8       30.05F FOG     WCI  29
COLUMBIA       MIX PCPN  34  33  96 S12       30.02S FOG     WCI  25
JEFFERSON CITY CLOUDY    35  33  92 S6        30.05S FOG     WCI  30
ROLLA          CLOUDY    34  34 100 S13       30.04S FOG     WCI  25
OSAGE BEACH    MIX PCPN  36  35  96 S8        30.06R FOG     WCI  30
SPRINGFIELD    CLOUDY    40  39  97 SW7       30.05R FOG
BRANSON        CLOUDY    39  39 100 CALM      30.07R FOG
JOPLIN         CLOUDY    40  40 100 W13       30.09R WCI  32
WEST PLAINS    MIX PCPN  37  36  96 SW5       30.09R FOG     WCI  33

$$

IAZ060-094-KSZ022-034>040-054-083-096-NEZ052-066-093-171800-
...KANSAS...SOUTHEAST NEBRASKA AND IOWA...

CITY           SKY/WX    TMP DP  RH WIND       PRES   REMARKS
TOPEKA         SUNNY     47  24  40 NW17G26   30.02R
MANHATTAN      SUNNY     49  22  34 W9        30.04R
EMPORIA        SUNNY     47  26  44 W15G24    30.05R
CHANUTE        PTSUNNY   43  37  79 W13       30.07R
WICHITA        MOSUNNY   51  25  36 NW10G21   30.07R
OMAHA          MOSUNNY   40  23  50 NW10      29.98R WCI  33
LINCOLN        SUNNY     42  25  50 N13       30.02R
FALLS CITY     SUNNY     42  21  43 NW18G29   29.99R WCI  34
LAMONI         MOSUNNY   39  21  48 W22G28    29.95R WCI  29
DES MOINES     LGT SNOW  29  26  89 W9        29.96R FOG     WCI  20

$$





USA.gov is the U.S. government's official web portal to all federal, state and local government web resources and services.